Flag for Canada Weather past 2 weeks in Prince Albert, Saskatchewan, Canada

Now
57 °F

Broken clouds.


Feels Like: 53 °F
Forecast: 43 / 65 °F
Wind: 22 mph from East

Location: Prince Albert

Current Time: May 5, 2015 at 1:29:33 PM

Latest Report: May 5, 2015 at 12:00 PM


Visibility: 15 mi

Pressure: 29.91 "Hg

Humidity: 48%

Dew point: 37 °F

Location of Prince AlbertLocation

Historic Weather in Prince Albert — Graph

°F

Prince Albert temperature yesterday

Maximum temperature yesterday: 59 °F (at 2:00 PM)
Minimum temperature yesterday: 30 °F (at 12:00 AM)
Average temperature yesterday: 45 °F

Past Weeks' High & Low Weather Summary

 TemperatureHumidityPressure
High79 °F (Apr 29, 3:00 PM)100% (Apr 26, 2:00 AM)30.34 "Hg (Apr 26, 2:00 AM)
Low18 °F (Apr 21, 6:00 AM)19% (Apr 30, 2:00 PM)29.60 "Hg (Apr 29, 6:00 PM)
Average44 °F62%29.96 "Hg
* Reported Apr 20 12:00 Noon — May 5 12:00 Noon, Prince Albert, Weather by CustomWeather, © 2015

Note: Actual official high and low records may vary slightly from our data, if they occured in-between our weather recording intervals... More about our weather records

Advertising

Prince Albert weather history for previous 24 hours

 ConditionsComfort  
Time TempWeatherWind HumidityBarometerVisibility
12:00 PM
Tue, May 5
57 °FBroken clouds.22 mph48%29.91 "Hg15 mi
11:00 AM54 °FScattered clouds.23 mph54%29.93 "Hg15 mi
10:00 AM52 °FScattered clouds.21 mph58%29.94 "Hg15 mi
9:00 AM50 °FScattered clouds.23 mph62%29.95 "Hg15 mi
8:00 AM46 °FPartly sunny.24 mph66%29.97 "Hg15 mi
7:00 AM45 °FMostly cloudy.15 mph66%29.98 "Hg15 mi
6:00 AM43 °FPartly sunny.20 mph66%29.99 "Hg15 mi
5:00 AM43 °FPassing clouds.23 mph66%29.99 "Hg15 mi
4:00 AM43 °FPassing clouds.20 mph66%30.00 "Hg15 mi
3:00 AM43 °FPassing clouds.15 mph66%30.02 "Hg15 mi
2:00 AM45 °FPassing clouds.18 mph66%30.03 "Hg15 mi
1:00 AM46 °FPassing clouds.14 mph62%30.03 "Hg15 mi
12:00 AM48 °FPassing clouds.16 mph58%30.02 "Hg15 mi
11:00 PM
Mon, May 4
50 °FPassing clouds.14 mph50%30.05 "Hg15 mi
10:00 PM52 °FPassing clouds.12 mph47%30.05 "Hg15 mi
9:00 PM52 °FPassing clouds.12 mph47%30.05 "Hg15 mi
8:00 PM54 °FBroken clouds.13 mph44%30.05 "Hg15 mi
7:00 PM55 °FPartly sunny.13 mph41%30.08 "Hg15 mi
6:00 PM59 °FBroken clouds.3 mph31%30.09 "Hg15 mi
5:00 PM57 °FPartly sunny.3 mph33%30.11 "Hg15 mi
4:00 PM59 °FMostly cloudy.12 mph31%30.11 "Hg15 mi
2:00 PM59 °FOvercast.3 mph31%30.13 "Hg15 mi
1:00 PM57 °FOvercast.6 mph33%30.14 "Hg15 mi
Weather by CustomWeather, © 2015

See weather overviewHow to use our weather pages